Location: Raleigh
(35.7720°N, 78.6390°W)
Time: 20:38:04
(UTC-05:00)

JAS-2 - Visible Passes

Search period start: 19 December 2014 00:00
Search period end: 29 December 2014 00:00
Orbit: 800 x 1322 km, 98.5° (Epoch: 17 December)

Date Brightness Start Highest point End Pass type
(mag) Time Alt. Az. Time Alt. Az. Time Alt. Az.
19 Dec 11.0 04:38:17 10° NE 04:43:05 29° E 04:47:35 10° SSE visible
19 Dec 10.0 06:23:21 10° N 06:28:07 29° WNW 06:32:35 10° SW visible
19 Dec 12.6 18:17:04 10° SW 18:21:52 18° W 18:26:31 10° NW visible
20 Dec 9.1 05:27:45 10° NNE 05:33:22 89° ESE 05:38:34 10° SSW visible
20 Dec 11.3 17:19:15 10° S 17:26:35 46° W 17:33:27 10° NNW visible
21 Dec 11.1 04:33:31 10° NE 04:38:04 26° E 04:42:24 10° SSE visible
21 Dec 9.9 06:18:23 10° N 06:23:12 31° WNW 06:27:43 10° SW visible
21 Dec 12.6 18:11:59 10° SW 18:17:00 19° W 18:21:50 10° NW visible
22 Dec 9.1 05:22:52 10° NNE 05:28:24 82° ESE 05:33:34 10° S visible
23 Dec 11.3 04:28:46 10° NE 04:33:04 24° E 04:37:12 10° SSE visible
23 Dec 9.7 06:13:25 10° N 06:18:15 33° WNW 06:22:51 10° SW visible
23 Dec 12.5 18:06:56 10° SW 18:12:09 20° W 18:17:07 10° NW visible
24 Dec 9.2 05:17:58 10° NNE 05:23:24 75° ESE 05:28:33 10° S visible
25 Dec 11.4 04:24:00 10° NE 04:28:03 22° E 04:31:58 10° SE visible
25 Dec 9.6 06:08:26 10° N 06:13:19 36° WNW 06:17:59 10° SW visible
25 Dec 12.4 18:01:55 10° SW 18:07:17 21° W 18:12:22 10° NW visible
26 Dec 9.3 05:13:04 10° NNE 05:18:25 69° ESE 05:23:32 10° S visible
27 Dec 11.5 04:19:16 10° NE 04:23:02 20° E 04:26:44 10° SE visible
27 Dec 9.5 06:03:26 10° N 06:08:21 39° WNW 06:13:06 10° SW visible
27 Dec 12.4 17:56:55 10° SW 18:02:25 22° W 18:07:35 10° NW visible
28 Dec 9.5 05:08:10 10° NNE 05:13:25 62° E 05:18:31 10° S visible
28 Dec 10.7 06:55:28 10° NW 06:57:53 13° WNW 07:00:16 10° W visible
